Flag for Russia Weather past 2 weeks in Kaliningrad, Russia

Now
79 °F

Passing clouds.


Feels Like: 79 °F
Forecast: 61 / 86 °F
Wind: 15 mph from Northeast

Location: Kaliningrad/Khrabrovo Airport

Current Time: Jul 24, 2014 at 2:11:36 PM

Latest Report: Jul 24, 2014 at 1:30 PM


Visibility: N/A

Pressure: 30.09 "Hg

Humidity: 39%

Dew point: 52 °F

Location of KaliningradLocation

Historic Weather in Kaliningrad — Graph

°F

Kaliningrad temperature yesterday

Maximum temperature yesterday: 79 °F (at 4:00 PM)
Minimum temperature yesterday: 63 °F (at 6:00 AM)
Average temperature yesterday: 71 °F

Past Weeks' High & Low Weather Summary

 TemperatureHumidityPressure
High84 °F (Jul 9, 2:00 PM)94% (Jul 10, 5:30 AM)30.21 "Hg (Jul 10, 5:30 AM)
Low50 °F (Jul 18, 5:30 AM)29% (Jul 9, 3:00 PM)29.62 "Hg (Jul 13, 4:00 AM)
Average67 °F69%30.00 "Hg
* Reported Jul 9 1:00 PM — Jul 24 1:00 PM, Kaliningrad, Weather by CustomWeather, © 2014

Note: Actual official high and low records may vary slightly from our data, if they occured in-between our weather recording intervals... More about our weather records

Advertising

Kaliningrad weather history for previous 24 hours

 ConditionsComfort  
Time TempWeatherWind HumidityBarometerVisibility
1:00 PM
Jul 24
79 °FPassing clouds.15 mph42%30.09 "HgN/A
12:30 PM79 °FPassing clouds.13 mph39%30.09 "HgN/A
12:00 PM79 °FPassing clouds.15 mph37%30.09 "HgN/A
11:30 AM77 °FPassing clouds.13 mph39%30.09 "HgN/A
11:00 AM77 °FSunny.13 mph34%30.09 "Hg10 mi
10:30 AM75 °FPassing clouds.13 mph41%30.09 "HgN/A
10:00 AM75 °FPassing clouds.8 mph41%30.09 "HgN/A
9:30 AM73 °FPassing clouds.8 mph47%30.09 "HgN/A
9:00 AM72 °FPassing clouds.8 mph50%30.09 "HgN/A
8:30 AM70 °FSunny.8 mph53%30.09 "Hg10 mi
8:00 AM68 °FPassing clouds.6 mph64%30.09 "HgN/A
7:30 AM64 °FPassing clouds.3 mph73%30.09 "HgN/A
7:00 AM63 °FClear.3 mph77%30.09 "Hg10 mi
6:30 AM59 °FPassing clouds.3 mph82%30.09 "HgN/A
6:00 AM57 °FFog.6 mph88%30.09 "Hg4 mi
5:30 AM57 °FFog.3 mph88%30.09 "Hg4 mi
5:00 AM59 °FFog.3 mph82%30.09 "Hg5 mi
4:00 AM61 °FClear.3 mph77%30.09 "Hg10 mi
3:30 AM61 °FClear.3 mph77%30.09 "Hg10 mi
3:00 AM61 °FClear.3 mph77%30.09 "Hg10 mi
2:00 AM63 °FClear.3 mph73%30.12 "Hg10 mi
1:00 AM63 °FClear.3 mph73%30.12 "Hg10 mi
12:30 AM63 °FClear.3 mph77%30.12 "Hg10 mi
12:00 AM63 °FClear.3 mph73%30.12 "Hg10 mi
11:30 PM
Jul 23
64 °FSunny.3 mph73%30.09 "Hg10 mi
11:00 PM64 °FSunny.6 mph73%30.09 "Hg10 mi
10:30 PM68 °FSunny.1 mph69%30.09 "Hg10 mi
10:00 PM70 °FSunny.3 mph60%30.09 "Hg10 mi
9:30 PM72 °FScattered clouds.6 mph69%30.09 "HgN/A
9:00 PM73 °FScattered clouds.8 mph65%30.09 "HgN/A
8:30 PM73 °FScattered clouds.6 mph61%30.09 "HgN/A
8:00 PM73 °FScattered clouds.10 mph61%30.09 "HgN/A
7:30 PM75 °FScattered clouds.13 mph57%30.07 "HgN/A
7:00 PM75 °FPartly sunny.10 mph57%30.07 "HgN/A
6:30 PM77 °FScattered clouds.13 mph51%30.07 "HgN/A
6:00 PM75 °FScattered clouds.13 mph57%30.09 "HgN/A
5:30 PM77 °FScattered clouds.13 mph54%30.09 "HgN/A
5:00 PM79 °FScattered clouds.13 mph42%30.09 "HgN/A
4:30 PM79 °FScattered clouds.13 mph37%30.09 "HgN/A
4:00 PM79 °FScattered clouds.15 mph37%30.09 "HgN/A
Weather by CustomWeather, © 2014

See weather overviewHow to use our weather pages